Mora, MN

11:08 PM CDT on August 26, 2016 (GMT -0500)
Mora Municipal

Weather History for KJMR - November, 2012

Change the Weather History Date:

Saturday, November 3, 2012

  Actual Average Record
Temperature  
Mean Temperature 34 °F -  
Max Temperature 37 °F 45 °F 74 °F (1978)
Min Temperature 32 °F 24 °F 0 °F (1984)
Degree Days  
Heating Degree Days 30    
Moisture  
Dew Point 25 °F    
Average Humidity 70    
Maximum Humidity 80    
Minimum Humidity 60    
Precipitation  
Precipitation 0.00 in - - ()
Sea Level Pressure  
Sea Level Pressure 30.22 in    
Wind  
Wind Speed 3 mph (East)    
Max Wind Speed 7 mph    
Max Gust Speed -    
Visibility 10 miles    
Events      
Averages and records for this station are not official NWS values.
T = Trace of Precipitation, MM = Missing Value Source: NWS Daily Summary

Daily Weather History Graph

Daily Weather History Graph

Search for Another Location

Airport or City:

Trip Planner

Search our weather history database for the weather conditions in past years. The results will help you decide how hot, cold, wet, or windy it might be!

Date:

Astronomy

Nov. 03, 2012 Rise Set
Actual Time 7:56 AM CDT 5:55 PM CDT
Civil Twilight 7:25 AM CDT 6:27 PM CDT
Nautical Twilight 6:50 AM CDT 7:02 PM CDT
Astronomical Twilight 6:15 AM CDT 7:37 PM CDT
Moon 9:32 PM CDT (11/3) 12:07 PM CDT (11/3)
Length of Visible Light 11h 01m
Length of Day
9h 58m
Waning Gibbous, 80% of the Moon is Illuminated
Nov 3
Waning Gibbous
Nov 6
Last Quarter
Nov 13
New
Nov 20
First Quarter
Nov 28
Full

Hourly Weather History & Observations

Time (CDT) Temp. Windchill Dew Point Humidity Pressure Visibility Wind Dir Wind Speed Gust Speed Precip Events Conditions
12:01 AM 33.8 °F 30.8 °F 24.8 °F 70% 30.19 in 10.0 mi ENE 3.5 mph - N/A   Overcast
12:21 AM 33.8 °F - 24.8 °F 70% 30.20 in 10.0 mi Calm Calm - N/A   Overcast
12:41 AM 33.8 °F 30.8 °F 24.8 °F 70% 30.19 in 10.0 mi ENE 3.5 mph - N/A   Overcast
1:01 AM 33.8 °F 28.6 °F 24.8 °F 70% 30.20 in 10.0 mi ENE 5.8 mph - N/A   Overcast
1:21 AM 33.8 °F 27.7 °F 24.8 °F 70% 30.19 in 10.0 mi NE 6.9 mph - N/A   Overcast
1:41 AM 33.8 °F 28.6 °F 24.8 °F 70% 30.19 in 10.0 mi East 5.8 mph - N/A   Overcast
2:01 AM 32.0 °F 28.7 °F 23.0 °F 69% 30.19 in 10.0 mi East 3.5 mph - N/A   Overcast
2:21 AM 32.0 °F 28.7 °F 23.0 °F 69% 30.19 in 10.0 mi ENE 3.5 mph - N/A   Overcast
2:41 AM 32.0 °F 28.7 °F 21.2 °F 64% 30.20 in 10.0 mi ENE 3.5 mph - N/A   Overcast
3:01 AM 32.0 °F - 23.0 °F 69% 30.20 in 10.0 mi Calm Calm - N/A   Overcast
3:21 AM 32.0 °F 27.5 °F 21.2 °F 64% 30.19 in 10.0 mi ENE 4.6 mph - N/A   Overcast
3:41 AM 32.0 °F 28.7 °F 21.2 °F 64% 30.19 in 10.0 mi ENE 3.5 mph - N/A   Overcast
4:01 AM 32.0 °F 27.5 °F 21.2 °F 64% 30.19 in 10.0 mi East 4.6 mph - N/A   Overcast
4:21 AM 32.0 °F 28.7 °F 21.2 °F 64% 30.19 in 10.0 mi ENE 3.5 mph - N/A   Overcast
4:41 AM 32.0 °F - 21.2 °F 64% 30.20 in 10.0 mi Calm Calm - N/A   Mostly Cloudy
5:01 AM 32.0 °F 26.4 °F 23.0 °F 69% 30.20 in 10.0 mi ENE 5.8 mph - N/A   Overcast
5:21 AM 32.0 °F 28.7 °F 23.0 °F 69% 30.21 in 10.0 mi ENE 3.5 mph - N/A   Overcast
5:41 AM 32.0 °F 28.7 °F 23.0 °F 69% 30.21 in 10.0 mi ENE 3.5 mph - N/A   Overcast
6:01 AM 32.0 °F 28.7 °F 23.0 °F 69% 30.21 in 10.0 mi East 3.5 mph - N/A   Mostly Cloudy
6:21 AM 32.0 °F - 24.8 °F 75% 30.22 in 10.0 mi Calm Calm - N/A   Mostly Cloudy
6:41 AM 32.0 °F 28.7 °F 24.8 °F 75% 30.21 in 10.0 mi ENE 3.5 mph - N/A   Overcast
7:01 AM 32.0 °F 28.7 °F 24.8 °F 75% 30.22 in 10.0 mi ENE 3.5 mph - N/A   Overcast
7:21 AM 32.0 °F - 24.8 °F 75% 30.21 in 10.0 mi Calm Calm - N/A   Mostly Cloudy
7:41 AM 32.0 °F - 24.8 °F 75% 30.21 in 10.0 mi Calm Calm - N/A   Scattered Clouds
8:01 AM 32.0 °F 28.7 °F 24.8 °F 75% 30.22 in 10.0 mi ENE 3.5 mph - N/A   Mostly Cloudy
8:21 AM 32.0 °F - 26.6 °F 80% 30.22 in 10.0 mi Calm Calm - N/A   Overcast
8:41 AM 32.0 °F - 26.6 °F 80% 30.22 in 10.0 mi Calm Calm - N/A   Overcast
9:01 AM 32.0 °F 27.5 °F 24.8 °F 75% 30.22 in 10.0 mi East 4.6 mph - N/A   Overcast
9:21 AM 32.0 °F 26.4 °F 24.8 °F 75% 30.22 in 10.0 mi East 5.8 mph - N/A   Overcast
9:41 AM 32.0 °F 28.7 °F 24.8 °F 75% 30.23 in 10.0 mi East 3.5 mph - N/A   Overcast
10:01 AM 32.0 °F 28.7 °F 24.8 °F 75% 30.24 in 10.0 mi East 3.5 mph - N/A   Overcast
10:21 AM 32.0 °F 27.5 °F 24.8 °F 75% 30.24 in 10.0 mi ENE 4.6 mph - N/A   Overcast
10:41 AM 33.8 °F 29.6 °F 26.6 °F 75% 30.24 in 10.0 mi East 4.6 mph - N/A   Overcast
11:01 AM 33.8 °F 29.6 °F 26.6 °F 75% 30.24 in 10.0 mi East 4.6 mph - N/A   Overcast
11:21 AM 33.8 °F 29.6 °F 26.6 °F 75% 30.24 in 10.0 mi East 4.6 mph - N/A   Overcast
11:41 AM 33.8 °F 30.8 °F 24.8 °F 70% 30.24 in 10.0 mi ESE 3.5 mph - N/A   Mostly Cloudy
12:01 PM 35.6 °F 32.8 °F 26.6 °F 70% 30.24 in 10.0 mi East 3.5 mph - N/A   Mostly Cloudy
12:21 PM 35.6 °F 32.8 °F 26.6 °F 70% 30.24 in 10.0 mi ENE 3.5 mph - N/A   Scattered Clouds
12:41 PM 35.6 °F - 24.8 °F 65% 30.24 in 10.0 mi Calm Calm - N/A   Mostly Cloudy
1:01 PM 35.6 °F - 24.8 °F 65% 30.24 in 10.0 mi Calm Calm - N/A   Overcast
1:21 PM 35.6 °F 31.7 °F 24.8 °F 65% 30.23 in 10.0 mi SE 4.6 mph - N/A   Overcast
1:41 PM 35.6 °F 31.7 °F 26.6 °F 70% 30.23 in 10.0 mi SE 4.6 mph - N/A   Overcast
2:01 PM 35.6 °F 31.7 °F 26.6 °F 70% 30.23 in 10.0 mi SE 4.6 mph - N/A   Overcast
2:20 PM 35.6 °F 32.8 °F 24.8 °F 65% 30.23 in 10.0 mi ESE 3.5 mph - N/A   Overcast
2:41 PM 35.6 °F - 26.6 °F 70% 30.23 in 10.0 mi Calm Calm - N/A   Overcast
3:01 PM 35.6 °F - 26.6 °F 70% 30.22 in 10.0 mi Calm Calm - N/A   Overcast
3:21 PM 37.4 °F 34.9 °F 26.6 °F 65% 30.22 in 10.0 mi East 3.5 mph - N/A   Overcast
3:41 PM 37.4 °F 34.9 °F 26.6 °F 65% 30.22 in 10.0 mi East 3.5 mph - N/A   Overcast
4:01 PM 37.4 °F 33.8 °F 26.6 °F 65% 30.22 in 10.0 mi ESE 4.6 mph - N/A   Overcast
4:21 PM 37.4 °F 34.9 °F 24.8 °F 60% 30.22 in 10.0 mi SE 3.5 mph - N/A   Overcast
4:41 PM 37.4 °F 34.9 °F 24.8 °F 60% 30.22 in 10.0 mi ESE 3.5 mph - N/A   Overcast
5:01 PM 37.4 °F - 26.6 °F 65% 30.22 in 10.0 mi Calm Calm - N/A   Overcast
5:21 PM 35.6 °F - 24.8 °F 65% 30.22 in 10.0 mi Calm Calm - N/A   Overcast
5:41 PM 35.6 °F - 24.8 °F 65% 30.22 in 10.0 mi Calm Calm - N/A   Overcast
6:01 PM 35.6 °F - 24.8 °F 65% 30.22 in 10.0 mi Calm Calm - N/A   Overcast
6:21 PM 35.6 °F - 26.6 °F 70% 30.22 in 10.0 mi Calm Calm - N/A   Overcast
6:41 PM 35.6 °F - 26.6 °F 70% 30.22 in 10.0 mi Calm Calm - N/A   Overcast
7:01 PM 33.8 °F - 24.8 °F 70% 30.22 in 10.0 mi Calm Calm - N/A   Overcast
7:21 PM 33.8 °F - 26.6 °F 75% 30.23 in 10.0 mi Calm Calm - N/A   Overcast
7:41 PM 33.8 °F - 26.6 °F 75% 30.23 in 10.0 mi Calm Calm - N/A   Overcast
8:01 PM 33.8 °F - 26.6 °F 75% 30.23 in 10.0 mi Calm Calm - N/A   Overcast
8:21 PM 33.8 °F - 26.6 °F 75% 30.23 in 10.0 mi Calm Calm - N/A   Overcast
8:41 PM 35.6 °F - 26.6 °F 70% 30.23 in 10.0 mi Calm Calm - N/A   Overcast
9:01 PM 35.6 °F - 26.6 °F 70% 30.23 in 10.0 mi Calm Calm - N/A   Overcast
9:21 PM 33.8 °F - 26.6 °F 75% 30.24 in 10.0 mi Calm Calm - N/A   Overcast
9:41 PM 33.8 °F - 26.6 °F 75% 30.24 in 10.0 mi Calm Calm - N/A   Overcast
10:01 PM 33.8 °F - 26.6 °F 75% 30.24 in 10.0 mi Calm Calm - N/A   Overcast
10:21 PM 35.6 °F - 26.6 °F 70% 30.24 in 10.0 mi Calm Calm - N/A   Overcast
10:41 PM 33.8 °F 30.8 °F 26.6 °F 75% 30.24 in 10.0 mi ENE 3.5 mph - N/A   Overcast
11:01 PM 33.8 °F 30.8 °F 24.8 °F 70% 30.24 in 10.0 mi ENE 3.5 mph - N/A   Overcast
11:21 PM 33.8 °F - 24.8 °F 70% 30.24 in 10.0 mi Calm Calm - N/A   Overcast
11:41 PM 33.8 °F - 24.8 °F 70% 30.25 in 10.0 mi Calm Calm - N/A   Overcast